Flag for Germany Weather past 2 weeks in Arnsberg, North Rhine-Westphalia, Germany

Now
37 °F

Passing clouds.


Feels Like: 29 °F
Forecast: 35 / 41 °F
Wind: 14 mph from West

Location: Dortmund / Wickede

Current Time: Mar 2, 2015 at 6:55:59 AM

Latest Report: Mar 2, 2015 at 6:20 AM


Visibility: N/A

Pressure: 29.53 "Hg

Humidity: 70%

Dew point: 28 °F

Location of ArnsbergLocation

Historic Weather in Arnsberg — Graph

°F

Arnsberg temperature yesterday

Maximum temperature yesterday: 52 °F (at 12:50 PM)
Minimum temperature yesterday: 39 °F (at 5:20 AM)
Average temperature yesterday: 46 °F

Past Weeks' High & Low Weather Summary

 TemperatureHumidityPressure
High52 °F (Mar 1, 12:50 PM)100% (Feb 18, 10:20 AM)30.74 "Hg (Feb 18, 10:20 AM)
Low27 °F (Feb 16, 5:50 AM)42% (Feb 28, 1:50 PM)29.33 "Hg (Feb 21, 5:20 AM)
Average39 °F76%29.94 "Hg
* Reported Feb 15 5:20 AM — Mar 2 5:50 AM, Arnsberg, Weather by CustomWeather, © 2015

Note: Actual official high and low records may vary slightly from our data, if they occured in-between our weather recording intervals... More about our weather records

Advertising

Arnsberg weather history for previous 24 hours

 ConditionsComfort  
Time TempWeatherWind HumidityBarometerVisibility
5:50 AM
Mon, Mar 2
39 °FPassing clouds.15 mph65%29.53 "HgN/A
5:20 AM41 °FPassing clouds.13 mph66%29.50 "HgN/A
10:50 PM
Sun, Mar 1
45 °FClear.12 mph71%29.50 "Hg10 mi
10:20 PM45 °FClear.10 mph71%29.53 "Hg10 mi
9:50 PM45 °FClear.15 mph71%29.56 "Hg10 mi
9:20 PM45 °FClear.17 mph71%29.56 "Hg10 mi
8:20 PM43 °FClear.13 mph76%29.59 "Hg10 mi
7:50 PM45 °FClear.15 mph71%29.59 "Hg10 mi
7:20 PM46 °FClear.20 mph62%29.59 "Hg10 mi
6:50 PM46 °FClear.17 mph62%29.59 "Hg10 mi
6:20 PM46 °FPassing clouds.17 mph66%29.59 "HgN/A
5:50 PM48 °FSunny.17 mph62%29.59 "Hg10 mi
5:20 PM46 °FScattered clouds.16 mph62%29.59 "HgN/A
4:50 PM48 °FScattered showers. Scattered clouds.14 mph58%29.59 "HgN/A
4:20 PM48 °FScattered showers. Scattered clouds.24 mph58%29.56 "HgN/A
3:50 PM48 °FScattered clouds.28 mph58%29.56 "HgN/A
3:20 PM50 °FScattered clouds.25 mph54%29.56 "HgN/A
2:50 PM50 °FSunny.17 mph50%29.56 "Hg10 mi
2:20 PM52 °FPassing clouds.21 mph47%29.56 "HgN/A
1:50 PM52 °FScattered clouds.17 mph50%29.59 "HgN/A
1:20 PM48 °FLight rain. Scattered clouds.22 mph54%29.59 "HgN/A
12:50 PM52 °FScattered clouds.24 mph47%29.56 "HgN/A
12:20 PM50 °FPassing clouds.20 mph58%29.56 "HgN/A
11:50 AM48 °FScattered showers. Broken clouds.22 mph71%29.56 "HgN/A
11:20 AM48 °FScattered clouds.28 mph66%29.56 "HgN/A
10:50 AM48 °FPartly sunny.22 mph71%29.56 "HgN/A
10:20 AM48 °FPartly sunny.22 mph76%29.56 "HgN/A
9:50 AM45 °FPartly sunny.18 mph81%29.56 "HgN/A
9:20 AM43 °FPartly sunny.17 mph81%29.56 "HgN/A
8:50 AM41 °FDrizzle. Partly sunny.17 mph87%29.53 "Hg4 mi
8:20 AM41 °FDrizzle. Partly sunny.21 mph87%29.53 "Hg4 mi
7:50 AM41 °FDrizzle. Partly sunny.23 mph81%29.53 "HgN/A
7:20 AM41 °FPartly sunny.24 mph81%29.53 "HgN/A
6:50 AM41 °FLight rain. Passing clouds.22 mph81%29.53 "HgN/A
6:20 AM39 °FLight rain. Passing clouds.22 mph87%29.53 "HgN/A
Weather by CustomWeather, © 2015

See weather overviewHow to use our weather pages